Time,TemperatureF,DewpointF,PressureIn,WindDirection,WindDirectionDegrees,WindSpeedMPH,WindSpeedGustMPH,Humidity,HourlyPrecipIn,Conditions,Clouds,dailyrainin,SolarRadiationWatts/m^2,SoftwareType,DateUTC
2013-05-29 00:00:00,38.0,35.3,30.18,ENE,71,0.0,2.0,90,0.00,,---,0.00,0.00,VWS V14.00,2013-05-29 04:00:00,
2013-05-29 00:01:00,52.3,47.9,30.08,NE,46,0.0,1.0,85,0.00,,---,0.00,0.00,VWS V14.00,2013-05-29 04:01:00,
2013-05-29 00:06:00,52.2,47.8,30.08,NE,46,0.0,1.0,85,0.00,,---,0.00,0.00,VWS V14.00,2013-05-29 04:06:00,
2013-05-29 00:12:00,52.2,47.8,30.08,NE,46,0.0,1.0,85,0.00,,---,0.00,0.00,VWS V14.00,2013-05-29 04:12:00,
2013-05-29 00:17:00,52.2,47.8,30.07,NE,46,0.0,0.0,85,0.00,,---,0.00,0.00,VWS V14.00,2013-05-29 04:17:00,
2013-05-29 00:22:00,52.3,47.9,30.07,NE,46,0.0,0.0,85,0.00,,---,0.00,0.00,VWS V14.00,2013-05-29 04:22:00,
2013-05-29 00:27:00,52.3,47.6,30.07,NE,46,0.0,0.0,84,0.00,,---,0.00,0.00,VWS V14.00,2013-05-29 04:27:00,
2013-05-29 00:30:00,37.6,34.9,30.17,ENE,71,0.0,1.0,90,0.00,,---,0.00,0.00,VWS V14.00,2013-05-29 04:30:00,
2013-05-29 00:32:00,52.6,47.6,30.07,SW,214,0.0,3.0,83,0.00,,---,0.00,0.00,VWS V14.00,2013-05-29 04:32:00,
2013-05-29 00:37:00,52.7,47.4,30.07,SW,214,0.0,3.0,82,0.00,,---,0.00,0.00,VWS V14.00,2013-05-29 04:37:00,
2013-05-29 00:42:00,53.0,47.3,30.07,SW,214,0.0,3.0,81,0.00,,---,0.00,0.00,VWS V14.00,2013-05-29 04:42:00,
2013-05-29 00:47:00,53.2,46.5,30.07,SW,214,0.0,0.0,78,0.00,,---,0.00,0.00,VWS V14.00,2013-05-29 04:47:00,
2013-05-29 00:52:00,53.5,46.1,30.06,SW,214,0.0,0.0,76,0.00,,---,0.00,0.00,VWS V14.00,2013-05-29 04:52:00,
2013-05-29 00:57:00,54.0,46.6,30.06,SW,214,0.0,1.0,76,0.00,,---,0.00,0.00,VWS V14.00,2013-05-29 04:57:00,
2013-05-29 01:00:00,37.0,34.6,30.17,ENE,71,0.0,2.0,91,0.00,,---,0.00,0.00,VWS V14.00,2013-05-29 05:00:00,
2013-05-29 01:02:00,54.7,45.9,30.05,SSE,166,0.0,3.0,72,0.00,,---,0.00,0.00,VWS V14.00,2013-05-29 05:02:00,
2013-05-29 01:07:00,55.9,46.3,30.05,SSE,167,1.0,4.0,70,0.00,,---,0.00,0.00,VWS V14.00,2013-05-29 05:07:00,
2013-05-29 01:12:00,56.2,45.8,30.05,South,185,0.0,4.0,68,0.00,,---,0.00,0.00,VWS V14.00,2013-05-29 05:12:00,
2013-05-29 01:17:00,56.4,46.0,30.05,South,173,2.0,3.0,68,0.00,,---,0.00,0.00,VWS V14.00,2013-05-29 05:17:00,
2013-05-29 01:22:00,56.6,45.8,30.05,South,172,0.0,4.0,67,0.00,,---,0.00,0.00,VWS V14.00,2013-05-29 05:22:00,
2013-05-29 01:27:00,56.7,45.9,30.05,South,172,0.0,4.0,67,0.00,,---,0.00,0.00,VWS V14.00,2013-05-29 05:27:00,
2013-05-29 01:30:00,36.8,34.4,30.17,ENE,71,0.0,1.0,91,0.00,,---,0.00,0.00,VWS V14.00,2013-05-29 05:30:00,
2013-05-29 01:32:00,56.8,46.0,30.05,SSE,163,1.0,4.0,67,0.00,,---,0.00,0.00,VWS V14.00,2013-05-29 05:32:00,
2013-05-29 01:37:00,56.9,46.1,30.05,SSE,159,0.0,4.0,67,0.00,,---,0.00,0.00,VWS V14.00,2013-05-29 05:37:00,
2013-05-29 01:42:00,56.9,46.1,30.05,South,170,0.0,4.0,67,0.00,,---,0.00,0.00,VWS V14.00,2013-05-29 05:42:00,
2013-05-29 01:47:00,56.9,46.5,30.05,SSE,165,3.0,5.0,68,0.00,,---,0.00,0.00,VWS V14.00,2013-05-29 05:47:00,
2013-05-29 01:52:00,56.9,46.5,30.05,South,171,3.0,9.0,68,0.00,,---,0.00,0.00,VWS V14.00,2013-05-29 05:52:00,
2013-05-29 01:57:00,56.8,46.8,30.05,SSE,159,2.0,9.0,69,0.00,,---,0.00,0.00,VWS V14.00,2013-05-29 05:57:00,
2013-05-29 02:00:00,36.1,33.7,30.18,ENE,71,0.0,1.0,91,0.00,,---,0.00,0.00,VWS V14.00,2013-05-29 06:00:00,
2013-05-29 02:02:00,56.8,47.1,30.05,South,177,2.0,9.0,70,0.00,,---,0.00,0.00,VWS V14.00,2013-05-29 06:02:00,
2013-05-29 02:07:00,56.9,47.6,30.05,SSW,195,1.0,9.0,71,0.00,,---,0.00,0.00,VWS V14.00,2013-05-29 06:07:00,
2013-05-29 02:12:00,56.9,48.0,30.05,SW,219,1.0,9.0,72,0.00,,---,0.00,0.00,VWS V14.00,2013-05-29 06:12:00,
2013-05-29 02:17:00,56.6,48.1,30.04,ESE,103,1.0,6.0,73,0.00,,---,0.00,0.00,VWS V14.00,2013-05-29 06:17:00,
2013-05-29 02:22:00,56.3,48.8,30.04,SSE,163,2.0,6.0,76,0.00,,---,0.00,0.00,VWS V14.00,2013-05-29 06:22:00,
2013-05-29 02:27:00,56.2,48.0,30.04,South,170,1.0,6.0,74,0.00,,---,0.00,0.00,VWS V14.00,2013-05-29 06:27:00,
2013-05-29 02:30:00,36.4,34.0,30.18,ENE,71,0.0,2.0,91,0.00,,---,0.00,0.00,VWS V14.00,2013-05-29 06:30:00,
2013-05-29 02:32:00,56.1,48.7,30.03,East,98,0.0,6.0,76,0.00,,---,0.00,0.00,VWS V14.00,2013-05-29 06:32:00,
2013-05-29 02:37:00,55.8,48.0,30.03,East,99,1.0,6.0,75,0.00,,---,0.00,0.00,VWS V14.00,2013-05-29 06:37:00,
2013-05-29 02:42:00,55.6,48.2,30.02,SSE,165,1.0,6.0,76,0.00,,---,0.00,0.00,VWS V14.00,2013-05-29 06:42:00,
2013-05-29 02:47:00,55.4,48.3,30.02,South,170,2.0,2.0,77,0.00,,---,0.00,0.00,VWS V14.00,2013-05-29 06:47:00,
2013-05-29 02:52:00,55.3,48.9,30.02,South,170,0.0,2.0,79,0.00,,---,0.00,0.00,VWS V14.00,2013-05-29 06:52:00,
2013-05-29 02:57:00,55.2,49.2,30.02,South,170,0.0,2.0,80,0.00,,---,0.00,0.00,VWS V14.00,2013-05-29 06:57:00,
2013-05-29 03:00:00,36.1,33.7,30.18,ENE,71,0.0,1.0,91,0.00,,---,0.00,0.00,VWS V14.00,2013-05-29 07:00:00,
2013-05-29 03:02:00,55.2,49.5,30.02,South,181,0.0,2.0,81,0.00,,---,0.00,0.00,VWS V14.00,2013-05-29 07:02:00,
2013-05-29 03:07:00,55.0,49.6,30.02,South,181,1.0,3.0,82,0.00,,---,0.00,0.00,VWS V14.00,2013-05-29 07:07:00,
2013-05-29 03:12:00,54.8,49.7,30.03,ESE,107,3.0,7.0,83,0.01,,---,0.01,0.00,VWS V14.00,2013-05-29 07:12:00,
2013-05-29 03:17:00,54.4,49.7,30.02,ESE,102,1.0,5.0,84,0.03,,---,0.03,0.00,VWS V14.00,2013-05-29 07:17:00,
2013-05-29 03:22:00,53.9,49.5,30.03,ESE,102,0.0,5.0,85,0.03,,---,0.03,0.00,VWS V14.00,2013-05-29 07:22:00,
2013-05-29 03:27:00,53.6,49.5,30.03,ESE,102,2.0,5.0,86,0.03,,---,0.03,0.00,VWS V14.00,2013-05-29 07:27:00,
2013-05-29 03:30:00,36.0,33.6,30.19,ENE,71,0.0,1.0,91,0.00,,---,0.00,23.00,VWS V14.00,2013-05-29 07:30:00,
2013-05-29 03:32:00,53.5,49.7,30.02,ESE,103,2.0,6.0,87,0.04,,---,0.04,0.00,VWS V14.00,2013-05-29 07:32:00,
2013-05-29 03:37:00,53.5,49.7,30.02,ESE,103,1.0,6.0,87,0.04,,---,0.04,0.00,VWS V14.00,2013-05-29 07:37:00,
2013-05-29 03:42:00,53.6,49.8,30.02,ESE,111,5.0,8.0,87,0.04,,---,0.04,0.00,VWS V14.00,2013-05-29 07:42:00,
2013-05-29 03:47:00,53.8,50.0,30.02,ESE,107,1.0,7.0,87,0.04,,---,0.04,0.00,VWS V14.00,2013-05-29 07:47:00,
2013-05-29 03:52:00,54.0,50.2,30.01,SE,142,4.0,7.0,87,0.04,,---,0.04,0.00,VWS V14.00,2013-05-29 07:52:00,
2013-05-29 03:57:00,54.1,50.3,30.01,SE,128,3.0,7.0,87,0.04,,---,0.04,0.00,VWS V14.00,2013-05-29 07:57:00,
2013-05-29 04:00:00,37.2,35.1,30.19,ENE,71,0.0,1.0,92,0.00,,---,0.00,53.00,VWS V14.00,2013-05-29 08:00:00,
2013-05-29 04:02:00,54.2,50.4,30.01,SE,144,5.0,7.0,87,0.04,,---,0.04,0.00,VWS V14.00,2013-05-29 08:02:00,
2013-05-29 04:07:00,54.1,50.3,30.01,SE,125,1.0,7.0,87,0.04,,---,0.04,0.00,VWS V14.00,2013-05-29 08:07:00,
2013-05-29 04:12:00,54.0,50.2,30.01,SSE,163,3.0,7.0,87,0.04,,---,0.04,0.00,VWS V14.00,2013-05-29 08:12:00,
2013-05-29 04:17:00,54.0,50.2,30.01,SSE,149,5.0,7.0,87,0.02,,---,0.04,0.00,VWS V14.00,2013-05-29 08:17:00,
2013-05-29 04:23:00,53.9,50.1,30.01,SE,145,1.0,7.0,87,0.02,,---,0.04,0.00,VWS V14.00,2013-05-29 08:23:00,
2013-05-29 04:28:00,54.0,50.5,30.01,SE,146,3.0,7.0,88,0.02,,---,0.04,0.00,VWS V14.00,2013-05-29 08:28:00,
2013-05-29 04:30:00,37.9,35.8,30.20,ENE,71,0.0,2.0,92,0.00,,---,0.00,81.00,VWS V14.00,2013-05-29 08:30:00,
2013-05-29 04:33:00,54.2,50.7,30.01,SE,126,2.0,7.0,88,0.02,,---,0.04,0.00,VWS V14.00,2013-05-29 08:33:00,
2013-05-29 04:38:00,54.2,50.7,30.00,ESE,116,2.0,8.0,88,0.02,,---,0.04,0.00,VWS V14.00,2013-05-29 08:38:00,
2013-05-29 04:43:00,54.4,50.9,30.01,SSE,150,3.0,13.0,88,0.02,,---,0.04,0.00,VWS V14.00,2013-05-29 08:43:00,
2013-05-29 04:48:00,54.4,50.9,30.01,East,95,3.0,5.0,88,0.00,,---,0.04,0.00,VWS V14.00,2013-05-29 08:48:00,
2013-05-29 04:53:00,54.4,50.9,30.01,SE,134,1.0,6.0,88,0.00,,---,0.04,0.00,VWS V14.00,2013-05-29 08:53:00,
2013-05-29 04:58:00,54.4,50.9,30.01,South,179,1.0,7.0,88,0.00,,---,0.04,0.00,VWS V14.00,2013-05-29 08:58:00,
2013-05-29 05:00:00,41.5,39.6,30.20,ENE,71,0.0,2.0,93,0.00,,---,0.00,244.00,VWS V14.00,2013-05-29 09:00:00,
2013-05-29 05:03:00,54.3,50.8,30.01,SSE,163,1.0,7.0,88,0.00,,---,0.04,0.00,VWS V14.00,2013-05-29 09:03:00,
2013-05-29 05:08:00,54.2,50.7,30.01,SSE,161,2.0,7.0,88,0.00,,---,0.04,0.00,VWS V14.00,2013-05-29 09:08:00,
2013-05-29 05:13:00,54.1,50.9,30.01,South,171,1.0,7.0,89,0.00,,---,0.04,0.00,VWS V14.00,2013-05-29 09:13:00,
2013-05-29 05:18:00,54.0,50.8,30.02,South,191,2.0,6.0,89,0.00,,---,0.04,0.00,VWS V14.00,2013-05-29 09:18:00,
2013-05-29 05:23:00,54.0,50.8,30.02,SSE,168,0.0,6.0,89,0.00,,---,0.04,0.00,VWS V14.00,2013-05-29 09:23:00,
2013-05-29 05:28:00,54.0,50.8,30.02,South,172,3.0,6.0,89,0.00,,---,0.04,0.00,VWS V14.00,2013-05-29 09:28:00,
2013-05-29 05:30:00,46.5,44.6,30.19,ENE,71,1.0,2.0,93,0.00,,---,0.00,334.00,VWS V14.00,2013-05-29 09:30:00,
2013-05-29 05:33:00,54.0,50.8,30.02,South,188,6.0,7.0,89,0.00,,---,0.04,0.00,VWS V14.00,2013-05-29 09:33:00,
2013-05-29 05:38:00,53.9,50.7,30.02,South,188,1.0,7.0,89,0.00,,---,0.04,0.00,VWS V14.00,2013-05-29 09:38:00,
2013-05-29 05:43:00,54.0,50.8,30.02,South,173,1.0,7.0,89,0.00,,---,0.04,0.00,VWS V14.00,2013-05-29 09:43:00,
2013-05-29 05:48:00,53.9,50.7,30.02,South,178,5.0,5.0,89,0.00,,---,0.04,0.00,VWS V14.00,2013-05-29 09:48:00,
2013-05-29 05:53:00,53.9,51.0,30.02,SW,217,5.0,7.0,90,0.01,,---,0.05,0.00,VWS V14.00,2013-05-29 09:53:00,
2013-05-29 05:58:00,53.9,51.0,30.02,South,175,0.0,7.0,90,0.01,,---,0.05,0.00,VWS V14.00,2013-05-29 09:58:00,
2013-05-29 06:00:00,52.4,49.0,30.19,ENE,71,0.0,2.0,88,0.00,,---,0.00,432.00,VWS V14.00,2013-05-29 10:00:00,
2013-05-29 06:03:00,54.0,51.1,30.01,South,175,2.0,7.0,90,0.01,,---,0.05,5.00,VWS V14.00,2013-05-29 10:03:00,
2013-05-29 06:08:00,53.9,51.0,30.01,South,179,2.0,7.0,90,0.01,,---,0.05,5.00,VWS V14.00,2013-05-29 10:08:00,
2013-05-29 06:13:00,53.9,51.0,30.01,South,173,3.0,7.0,90,0.02,,---,0.06,7.00,VWS V14.00,2013-05-29 10:13:00,
2013-05-29 06:18:00,53.8,50.9,30.00,SE,130,0.0,6.0,90,0.02,,---,0.06,7.00,VWS V14.00,2013-05-29 10:18:00,
2013-05-29 06:23:00,53.8,50.9,30.00,South,184,3.0,6.0,90,0.02,,---,0.06,9.00,VWS V14.00,2013-05-29 10:23:00,
2013-05-29 06:28:00,53.8,51.2,30.00,ESE,119,3.0,6.0,91,0.02,,---,0.06,11.00,VWS V14.00,2013-05-29 10:28:00,
2013-05-29 06:30:00,59.8,39.0,30.18,South,175,1.0,14.0,46,0.00,,---,0.00,533.00,VWS V14.00,2013-05-29 10:30:00,
2013-05-29 06:33:00,53.8,51.2,30.00,SE,144,2.0,6.0,91,0.02,,---,0.06,14.00,VWS V14.00,2013-05-29 10:33:00,
2013-05-29 06:38:00,53.8,51.2,30.00,SE,128,3.0,6.0,91,0.02,,---,0.06,11.00,VWS V14.00,2013-05-29 10:38:00,
2013-05-29 06:43:00,53.9,51.3,30.00,ESE,111,2.0,6.0,91,0.02,,---,0.06,14.00,VWS V14.00,2013-05-29 10:43:00,
2013-05-29 06:48:00,53.9,51.3,30.00,South,183,1.0,6.0,91,0.02,,---,0.06,11.00,VWS V14.00,2013-05-29 10:48:00,
2013-05-29 06:53:00,54.0,51.4,30.00,South,176,0.0,6.0,91,0.02,,---,0.06,11.00,VWS V14.00,2013-05-29 10:53:00,
2013-05-29 06:58:00,54.1,51.5,30.00,SSE,165,3.0,8.0,91,0.02,,---,0.06,12.00,VWS V14.00,2013-05-29 10:58:00,
2013-05-29 07:00:00,61.4,38.7,30.17,SE,142,2.0,9.0,43,0.00,,---,0.00,582.00,VWS V14.00,2013-05-29 11:00:00,
2013-05-29 07:03:00,54.2,51.6,30.00,SW,230,2.0,8.0,91,0.02,,---,0.06,12.00,VWS V14.00,2013-05-29 11:03:00,
2013-05-29 07:08:00,54.2,51.6,30.01,SSE,161,1.0,8.0,91,0.02,,---,0.06,7.00,VWS V14.00,2013-05-29 11:08:00,
2013-05-29 07:13:00,54.2,51.6,30.00,South,171,4.0,8.0,91,0.02,,---,0.06,7.00,VWS V14.00,2013-05-29 11:13:00,
2013-05-29 07:18:00,54.3,51.7,30.00,South,173,7.0,7.0,91,0.00,,---,0.06,16.00,VWS V14.00,2013-05-29 11:18:00,
2013-05-29 07:23:00,54.3,51.7,30.00,SSE,167,2.0,7.0,91,0.00,,---,0.06,16.00,VWS V14.00,2013-05-29 11:23:00,
2013-05-29 07:28:00,54.4,51.8,30.00,South,171,4.0,7.0,91,0.00,,---,0.06,18.00,VWS V14.00,2013-05-29 11:28:00,
2013-05-29 07:30:00,62.3,38.9,30.17,East,99,3.0,11.0,42,0.00,,---,0.00,656.00,VWS V14.00,2013-05-29 11:30:00,
2013-05-29 07:33:00,54.4,51.8,30.00,SSE,163,0.0,7.0,91,0.00,,---,0.06,16.00,VWS V14.00,2013-05-29 11:33:00,
2013-05-29 07:38:00,54.6,52.0,30.00,SSE,150,2.0,7.0,91,0.00,,---,0.06,14.00,VWS V14.00,2013-05-29 11:38:00,
2013-05-29 07:43:00,54.7,52.1,30.00,SSE,160,4.0,7.0,91,0.00,,---,0.06,21.00,VWS V14.00,2013-05-29 11:43:00,
2013-05-29 07:48:00,54.7,52.1,29.99,South,183,3.0,4.0,91,0.00,,---,0.06,25.00,VWS V14.00,2013-05-29 11:48:00,
2013-05-29 07:53:00,54.8,52.2,29.99,SSW,194,3.0,6.0,91,0.00,,---,0.06,19.00,VWS V14.00,2013-05-29 11:53:00,
2013-05-29 07:58:00,54.8,51.9,29.99,SSE,150,4.0,6.0,90,0.00,,---,0.06,19.00,VWS V14.00,2013-05-29 11:58:00,
2013-05-29 08:00:00,62.5,37.2,30.17,ESE,118,1.0,11.0,39,0.00,,---,0.00,680.00,VWS V14.00,2013-05-29 12:00:00,
2013-05-29 08:03:00,54.7,52.1,29.99,SSE,166,4.0,9.0,91,0.00,,---,0.06,23.00,VWS V14.00,2013-05-29 12:03:00,
2013-05-29 08:08:00,54.6,52.0,29.99,South,184,1.0,9.0,91,0.00,,---,0.06,18.00,VWS V14.00,2013-05-29 12:08:00,
2013-05-29 08:13:00,54.6,52.0,29.99,South,169,4.0,9.0,91,0.01,,---,0.07,18.00,VWS V14.00,2013-05-29 12:13:00,
2013-05-29 08:18:00,54.6,52.0,29.99,South,185,4.0,4.0,91,0.01,,---,0.07,25.00,VWS V14.00,2013-05-29 12:18:00,
2013-05-29 08:23:00,54.6,52.0,29.99,South,170,6.0,9.0,91,0.02,,---,0.08,25.00,VWS V14.00,2013-05-29 12:23:00,
2013-05-29 08:28:00,54.7,52.1,29.99,South,169,2.0,9.0,91,0.02,,---,0.08,28.00,VWS V14.00,2013-05-29 12:28:00,
2013-05-29 08:30:00,63.6,42.5,30.17,SW,232,6.0,6.0,46,0.00,,---,0.00,608.00,VWS V14.00,2013-05-29 12:30:00,
2013-05-29 08:33:00,54.7,52.1,29.98,SE,137,4.0,9.0,91,0.04,,---,0.10,47.00,VWS V14.00,2013-05-29 12:33:00,
2013-05-29 08:38:00,54.6,52.0,29.98,SE,129,4.0,9.0,91,0.04,,---,0.10,37.00,VWS V14.00,2013-05-29 12:38:00,
2013-05-29 08:43:00,54.7,52.1,29.99,SE,127,4.0,10.0,91,0.04,,---,0.10,32.00,VWS V14.00,2013-05-29 12:43:00,
2013-05-29 08:48:00,54.9,52.0,29.99,ESE,105,10.0,14.0,90,0.05,,---,0.11,26.00,VWS V14.00,2013-05-29 12:48:00,
2013-05-29 08:53:00,55.0,52.1,29.99,ESE,123,4.0,14.0,90,0.05,,---,0.11,28.00,VWS V14.00,2013-05-29 12:53:00,
2013-05-29 08:58:00,55.0,52.1,29.99,SSE,152,2.0,14.0,90,0.06,,---,0.12,33.00,VWS V14.00,2013-05-29 12:58:00,
2013-05-29 09:00:00,63.5,41.8,30.18,South,173,1.0,9.0,45,0.00,,---,0.00,724.00,VWS V14.00,2013-05-29 13:00:00,
2013-05-29 09:03:00,55.0,52.1,29.98,SSE,150,2.0,14.0,90,0.07,,---,0.13,37.00,VWS V14.00,2013-05-29 13:03:00,
2013-05-29 09:09:00,54.9,52.0,29.98,SSE,161,3.0,14.0,90,0.08,,---,0.14,37.00,VWS V14.00,2013-05-29 13:09:00,
2013-05-29 09:14:00,54.9,52.0,29.99,SE,131,3.0,14.0,90,0.09,,---,0.15,33.00,VWS V14.00,2013-05-29 13:14:00,
2013-05-29 09:19:00,55.2,52.3,29.99,ESE,117,3.0,13.0,90,0.09,,---,0.16,44.00,VWS V14.00,2013-05-29 13:19:00,
2013-05-29 09:24:00,55.2,52.3,29.98,ESE,122,5.0,13.0,90,0.10,,---,0.17,40.00,VWS V14.00,2013-05-29 13:24:00,
2013-05-29 09:29:00,55.2,52.3,29.98,East,100,11.0,13.0,90,0.10,,---,0.17,44.00,VWS V14.00,2013-05-29 13:29:00,
2013-05-29 09:30:00,64.9,40.7,30.18,SSE,154,2.0,8.0,41,0.00,,---,0.00,793.00,VWS V14.00,2013-05-29 13:30:00,
2013-05-29 09:34:00,55.2,52.3,29.98,ESE,109,11.0,13.0,90,0.10,,---,0.17,56.00,VWS V14.00,2013-05-29 13:34:00,
2013-05-29 09:39:00,55.2,52.3,29.98,ESE,113,0.0,14.0,90,0.11,,---,0.18,62.00,VWS V14.00,2013-05-29 13:39:00,
2013-05-29 09:44:00,55.3,52.4,29.99,ESE,112,9.0,14.0,90,0.11,,---,0.18,49.00,VWS V14.00,2013-05-29 13:44:00,
2013-05-29 09:49:00,55.2,52.3,29.98,ESE,110,9.0,10.0,90,0.08,,---,0.19,49.00,VWS V14.00,2013-05-29 13:49:00,
2013-05-29 09:54:00,55.3,52.4,29.98,East,96,7.0,10.0,90,0.08,,---,0.19,67.00,VWS V14.00,2013-05-29 13:54:00,
2013-05-29 09:59:00,55.4,52.5,29.98,East,98,5.0,15.0,90,0.08,,---,0.19,63.00,VWS V14.00,2013-05-29 13:59:00,
2013-05-29 10:00:00,66.3,45.5,30.16,WSW,250,3.0,8.0,47,0.00,,---,0.00,954.00,VWS V14.00,2013-05-29 14:00:00,
2013-05-29 10:04:00,55.4,52.5,29.98,ESE,102,4.0,15.0,90,0.08,,---,0.19,97.00,VWS V14.00,2013-05-29 14:04:00,
2013-05-29 10:09:00,55.5,52.6,29.98,East,93,7.0,15.0,90,0.08,,---,0.19,97.00,VWS V14.00,2013-05-29 14:09:00,
2013-05-29 10:14:00,55.6,52.7,29.97,East,92,6.0,15.0,90,0.09,,---,0.20,97.00,VWS V14.00,2013-05-29 14:14:00,
2013-05-29 10:19:00,55.6,53.0,29.97,East,92,6.0,6.0,91,0.05,,---,0.20,132.00,VWS V14.00,2013-05-29 14:19:00,
2013-05-29 10:24:00,55.7,53.1,29.95,ESE,106,9.0,14.0,91,0.06,,---,0.21,165.00,VWS V14.00,2013-05-29 14:24:00,
2013-05-29 10:29:00,55.8,53.2,29.94,ESE,104,11.0,14.0,91,0.06,,---,0.21,237.00,VWS V14.00,2013-05-29 14:29:00,
2013-05-29 10:30:00,67.5,44.2,30.15,SW,228,0.0,9.0,43,0.00,,---,0.00,998.00,VWS V14.00,2013-05-29 14:30:00,
2013-05-29 10:34:00,56.2,53.6,29.93,ESE,114,1.0,14.0,91,0.06,,---,0.21,225.00,VWS V14.00,2013-05-29 14:34:00,
2013-05-29 10:39:00,56.6,54.0,29.95,South,182,6.0,14.0,91,0.06,,---,0.21,128.00,VWS V14.00,2013-05-29 14:39:00,
2013-05-29 10:44:00,56.6,54.0,29.96,SSE,164,4.0,14.0,91,0.06,,---,0.21,72.00,VWS V14.00,2013-05-29 14:44:00,
2013-05-29 10:49:00,56.4,53.8,29.96,ESE,105,4.0,7.0,91,0.03,,---,0.21,86.00,VWS V14.00,2013-05-29 14:49:00,
2013-05-29 10:55:00,56.5,53.9,29.96,East,89,5.0,7.0,91,0.03,,---,0.21,91.00,VWS V14.00,2013-05-29 14:55:00,
2013-05-29 11:00:00,56.4,53.5,29.96,ESE,111,7.0,13.0,90,0.03,,---,0.21,114.00,VWS V14.00,2013-05-29 15:00:00,
2013-05-29 11:05:00,56.3,53.7,29.96,South,177,2.0,13.0,91,0.03,,---,0.21,105.00,VWS V14.00,2013-05-29 15:05:00,
2013-05-29 11:10:00,56.2,53.6,29.97,ESE,108,2.0,13.0,91,0.03,,---,0.21,97.00,VWS V14.00,2013-05-29 15:10:00,
2013-05-29 11:15:00,56.3,53.7,29.97,ESE,107,2.0,3.0,91,0.01,,---,0.21,79.00,VWS V14.00,2013-05-29 15:15:00,
2013-05-29 11:20:00,56.3,53.7,29.98,ESE,108,1.0,8.0,91,0.01,,---,0.21,81.00,VWS V14.00,2013-05-29 15:20:00,
2013-05-29 11:25:00,56.3,53.7,29.98,ESE,121,2.0,8.0,91,0.01,,---,0.21,86.00,VWS V14.00,2013-05-29 15:25:00,
2013-05-29 11:30:00,56.4,53.8,29.98,East,98,7.0,8.0,91,0.01,,---,0.21,88.00,VWS V14.00,2013-05-29 15:30:00,
2013-05-29 11:35:00,56.4,53.8,29.98,ESE,103,5.0,9.0,91,0.01,,---,0.21,79.00,VWS V14.00,2013-05-29 15:35:00,
2013-05-29 11:40:00,56.5,53.9,29.98,ESE,110,2.0,9.0,91,0.01,,---,0.21,54.00,VWS V14.00,2013-05-29 15:40:00,
2013-05-29 11:45:00,56.5,53.9,29.98,ESE,110,2.0,2.0,91,0.00,,---,0.21,42.00,VWS V14.00,2013-05-29 15:45:00,
2013-05-29 11:50:00,56.5,53.9,29.98,ESE,110,1.0,3.0,91,0.00,,---,0.21,62.00,VWS V14.00,2013-05-29 15:50:00,
2013-05-29 11:55:00,56.8,54.2,29.98,ESE,110,0.0,4.0,91,0.00,,---,0.21,69.00,VWS V14.00,2013-05-29 15:55:00,
2013-05-29 12:00:00,57.0,54.7,29.98,ESE,110,0.0,4.0,92,0.00,,---,0.21,113.00,VWS V14.00,2013-05-29 16:00:00,
2013-05-29 12:05:00,57.3,55.0,29.98,ESE,110,4.0,4.0,92,0.00,,---,0.21,134.00,VWS V14.00,2013-05-29 16:05:00,
2013-05-29 12:10:00,57.5,55.2,29.97,ESE,109,3.0,7.0,92,0.00,,---,0.21,200.00,VWS V14.00,2013-05-29 16:10:00,
2013-05-29 12:15:00,57.7,55.4,29.97,ESE,104,5.0,8.0,92,0.00,,---,0.21,176.00,VWS V14.00,2013-05-29 16:15:00,
2013-05-29 12:20:00,57.8,55.5,29.97,East,100,5.0,6.0,92,0.00,,---,0.21,132.00,VWS V14.00,2013-05-29 16:20:00,
2013-05-29 12:25:00,57.7,55.1,29.97,ESE,107,3.0,7.0,91,0.00,,---,0.21,111.00,VWS V14.00,2013-05-29 16:25:00,
2013-05-29 12:30:00,57.7,55.1,29.98,ESE,107,3.0,8.0,91,0.00,,---,0.21,114.00,VWS V14.00,2013-05-29 16:30:00,
2013-05-29 12:35:00,57.7,55.1,29.98,East,100,1.0,8.0,91,0.00,,---,0.21,113.00,VWS V14.00,2013-05-29 16:35:00,
2013-05-29 12:40:00,57.8,55.2,29.97,East,94,6.0,8.0,91,0.00,,---,0.21,113.00,VWS V14.00,2013-05-29 16:40:00,
2013-05-29 12:45:00,57.7,55.1,29.97,ESE,102,4.0,7.0,91,0.00,,---,0.21,116.00,VWS V14.00,2013-05-29 16:45:00,
2013-05-29 12:50:00,57.7,55.1,29.97,ESE,106,4.0,8.0,91,0.00,,---,0.21,146.00,VWS V14.00,2013-05-29 16:50:00,
2013-05-29 12:55:00,57.7,55.1,29.97,ESE,106,5.0,10.0,91,0.00,,---,0.21,130.00,VWS V14.00,2013-05-29 16:55:00,
2013-05-29 13:00:00,57.7,55.1,29.97,SE,145,2.0,10.0,91,0.00,,---,0.21,113.00,VWS V14.00,2013-05-29 17:00:00,
2013-05-29 13:05:00,57.7,55.1,29.97,SSE,150,0.0,10.0,91,0.00,,---,0.21,84.00,VWS V14.00,2013-05-29 17:05:00,
2013-05-29 13:10:00,57.8,55.2,29.97,South,171,1.0,10.0,91,0.00,,---,0.21,83.00,VWS V14.00,2013-05-29 17:10:00,
2013-05-29 13:15:00,57.7,55.1,29.97,ESE,105,2.0,3.0,91,0.00,,---,0.21,98.00,VWS V14.00,2013-05-29 17:15:00,
2013-05-29 13:20:00,58.1,55.8,29.97,ESE,108,0.0,5.0,92,0.00,,---,0.21,100.00,VWS V14.00,2013-05-29 17:20:00,
2013-05-29 13:25:00,58.0,55.7,29.97,ESE,109,0.0,5.0,92,0.00,,---,0.21,114.00,VWS V14.00,2013-05-29 17:25:00,
2013-05-29 13:30:00,58.1,55.8,29.97,ESE,112,0.0,5.0,92,0.00,,---,0.21,188.00,VWS V14.00,2013-05-29 17:30:00,
2013-05-29 13:35:00,58.4,56.1,29.96,East,97,1.0,7.0,92,0.00,,---,0.21,234.00,VWS V14.00,2013-05-29 17:35:00,
2013-05-29 13:40:00,58.9,56.6,29.96,East,97,5.0,7.0,92,0.00,,---,0.21,292.00,VWS V14.00,2013-05-29 17:40:00,
2013-05-29 13:45:00,59.3,56.7,29.96,ESE,109,8.0,8.0,91,0.00,,---,0.21,246.00,VWS V14.00,2013-05-29 17:45:00,
2013-05-29 13:50:00,59.5,56.9,29.96,ESE,116,4.0,8.0,91,0.00,,---,0.21,192.00,VWS V14.00,2013-05-29 17:50:00,
2013-05-29 13:55:00,59.7,57.1,29.96,ESE,109,2.0,8.0,91,0.00,,---,0.21,221.00,VWS V14.00,2013-05-29 17:55:00,
2013-05-29 14:00:00,60.0,57.4,29.96,East,101,5.0,8.0,91,0.00,,---,0.21,320.00,VWS V14.00,2013-05-29 18:00:00,
2013-05-29 14:05:00,60.5,57.6,29.96,ESE,108,3.0,8.0,90,0.00,,---,0.21,327.00,VWS V14.00,2013-05-29 18:05:00,
2013-05-29 14:10:00,61.1,58.5,29.96,ESE,107,3.0,8.0,91,0.00,,---,0.21,241.00,VWS V14.00,2013-05-29 18:10:00,
2013-05-29 14:15:00,61.6,58.6,29.96,ESE,118,1.0,1.0,90,0.00,,---,0.21,353.00,VWS V14.00,2013-05-29 18:15:00,
2013-05-29 14:20:00,61.8,58.8,29.97,ESE,120,1.0,4.0,90,0.00,,---,0.21,221.00,VWS V14.00,2013-05-29 18:20:00,
2013-05-29 14:25:00,62.1,59.1,29.97,SE,126,0.0,4.0,90,0.00,,---,0.21,253.00,VWS V14.00,2013-05-29 18:25:00,
2013-05-29 14:30:00,62.9,59.9,29.97,South,184,1.0,5.0,90,0.00,,---,0.21,192.00,VWS V14.00,2013-05-29 18:30:00,
2013-05-29 14:35:00,63.4,60.4,29.96,SE,140,2.0,8.0,90,0.00,,---,0.21,376.00,VWS V14.00,2013-05-29 18:35:00,
2013-05-29 14:40:00,63.7,60.4,29.96,SSE,165,2.0,9.0,89,0.00,,---,0.21,385.00,VWS V14.00,2013-05-29 18:40:00,
2013-05-29 14:45:00,64.0,60.4,29.96,South,186,2.0,4.0,88,0.00,,---,0.21,413.00,VWS V14.00,2013-05-29 18:45:00,
2013-05-29 14:50:00,64.3,60.7,29.96,SE,144,3.0,7.0,88,0.00,,---,0.21,596.00,VWS V14.00,2013-05-29 18:50:00,
2013-05-29 14:55:00,64.7,60.8,29.95,SE,136,5.0,7.0,87,0.00,,---,0.21,638.00,VWS V14.00,2013-05-29 18:55:00,
2013-05-29 15:00:00,64.8,60.8,29.95,SE,141,5.0,9.0,87,0.00,,---,0.21,302.00,VWS V14.00,2013-05-29 19:00:00,
2013-05-29 15:05:00,65.0,61.0,29.94,South,175,1.0,9.0,87,0.00,,---,0.21,410.00,VWS V14.00,2013-05-29 19:05:00,
2013-05-29 15:11:00,65.3,61.3,29.95,SSE,155,1.0,9.0,87,0.00,,---,0.21,258.00,VWS V14.00,2013-05-29 19:11:00,
2013-05-29 15:16:00,65.4,61.1,29.95,SSW,196,3.0,6.0,86,0.00,,---,0.21,165.00,VWS V14.00,2013-05-29 19:16:00,
2013-05-29 15:21:00,65.2,60.9,29.95,South,169,3.0,10.0,86,0.00,,---,0.21,155.00,VWS V14.00,2013-05-29 19:21:00,
2013-05-29 15:26:00,64.9,60.6,29.95,SSE,157,6.0,11.0,86,0.00,,---,0.21,97.00,VWS V14.00,2013-05-29 19:26:00,
2013-05-29 15:30:00,68.0,44.7,30.09,SSE,161,0.0,5.0,43,0.00,,---,0.00,236.00,VWS V14.00,2013-05-29 19:30:00,
2013-05-29 15:31:00,64.8,60.5,29.95,SW,225,3.0,11.0,86,0.00,,---,0.21,70.00,VWS V14.00,2013-05-29 19:31:00,
2013-05-29 15:36:00,64.6,60.3,29.96,South,175,2.0,11.0,86,0.00,,---,0.21,58.00,VWS V14.00,2013-05-29 19:36:00,
2013-05-29 15:41:00,64.4,60.1,29.95,SSE,165,3.0,11.0,86,0.00,,---,0.21,58.00,VWS V14.00,2013-05-29 19:41:00,
2013-05-29 15:46:00,64.2,60.3,29.95,SSW,194,1.0,4.0,87,0.00,,---,0.21,40.00,VWS V14.00,2013-05-29 19:46:00,
2013-05-29 15:51:00,64.1,60.2,29.95,SSE,161,3.0,8.0,87,0.00,,---,0.21,40.00,VWS V14.00,2013-05-29 19:51:00,
2013-05-29 15:56:00,63.9,60.0,29.94,South,173,2.0,8.0,87,0.00,,---,0.21,91.00,VWS V14.00,2013-05-29 19:56:00,
2013-05-29 16:00:00,67.8,45.1,30.08,West,263,0.0,4.0,44,0.00,,---,0.00,148.00,VWS V14.00,2013-05-29 20:00:00,
2013-05-29 16:01:00,64.0,60.1,29.94,SSW,197,0.0,8.0,87,0.00,,---,0.21,151.00,VWS V14.00,2013-05-29 20:01:00,
2013-05-29 16:06:00,64.2,60.6,29.94,SSW,198,0.0,8.0,88,0.00,,---,0.21,199.00,VWS V14.00,2013-05-29 20:06:00,
2013-05-29 16:11:00,64.4,60.8,29.94,South,180,0.0,8.0,88,0.00,,---,0.21,83.00,VWS V14.00,2013-05-29 20:11:00,
2013-05-29 16:16:00,64.3,60.3,29.94,ESE,103,1.0,2.0,87,0.00,,---,0.21,135.00,VWS V14.00,2013-05-29 20:16:00,
2013-05-29 16:21:00,64.3,60.3,29.95,ESE,103,0.0,2.0,87,0.00,,---,0.21,98.00,VWS V14.00,2013-05-29 20:21:00,
2013-05-29 16:26:00,64.4,60.5,29.95,ESE,103,0.0,2.0,87,0.00,,---,0.21,116.00,VWS V14.00,2013-05-29 20:26:00,
2013-05-29 16:30:00,67.6,44.9,30.08,WSW,256,4.0,7.0,44,0.00,,---,0.00,167.00,VWS V14.00,2013-05-29 20:30:00,
2013-05-29 16:31:00,64.5,60.5,29.94,ESE,103,1.0,2.0,87,0.00,,---,0.21,171.00,VWS V14.00,2013-05-29 20:31:00,
2013-05-29 16:36:00,64.6,60.7,29.94,East,96,0.0,5.0,87,0.00,,---,0.21,62.00,VWS V14.00,2013-05-29 20:36:00,
2013-05-29 16:41:00,64.7,60.8,29.94,East,96,0.0,5.0,87,0.00,,---,0.21,69.00,VWS V14.00,2013-05-29 20:41:00,
2013-05-29 16:46:00,64.8,60.8,29.94,East,96,0.0,1.0,87,0.00,,---,0.21,58.00,VWS V14.00,2013-05-29 20:46:00,
2013-05-29 16:51:00,64.9,60.9,29.94,East,96,0.0,1.0,87,0.00,,---,0.21,69.00,VWS V14.00,2013-05-29 20:51:00,
2013-05-29 16:56:00,64.9,60.9,29.94,East,96,3.0,3.0,87,0.00,,---,0.21,160.00,VWS V14.00,2013-05-29 20:56:00,
2013-05-29 17:00:00,65.7,47.6,30.09,SW,232,0.0,4.0,52,0.00,,---,0.00,69.00,VWS V14.00,2013-05-29 21:00:00,
2013-05-29 17:01:00,64.9,61.3,29.93,East,96,2.0,3.0,88,0.00,,---,0.21,179.00,VWS V14.00,2013-05-29 21:01:00,
2013-05-29 17:06:00,65.0,61.4,29.93,East,96,0.0,3.0,88,0.00,,---,0.21,141.00,VWS V14.00,2013-05-29 21:06:00,
2013-05-29 17:11:00,65.2,61.6,29.93,East,96,0.0,5.0,88,0.00,,---,0.21,158.00,VWS V14.00,2013-05-29 21:11:00,
2013-05-29 17:16:00,65.4,61.4,29.93,East,96,0.0,1.0,87,0.00,,---,0.21,97.00,VWS V14.00,2013-05-29 21:16:00,
2013-05-29 17:21:00,65.4,61.4,29.93,ESE,105,0.0,2.0,87,0.00,,---,0.21,81.00,VWS V14.00,2013-05-29 21:21:00,
2013-05-29 17:26:00,65.3,61.3,29.93,ESE,105,1.0,2.0,87,0.00,,---,0.21,91.00,VWS V14.00,2013-05-29 21:26:00,
2013-05-29 17:30:00,62.5,49.8,30.09,SW,232,1.0,2.0,63,0.00,,---,0.00,28.00,VWS V14.00,2013-05-29 21:30:00,
2013-05-29 17:31:00,65.2,61.2,29.93,ESE,105,0.0,2.0,87,0.00,,---,0.21,105.00,VWS V14.00,2013-05-29 21:31:00,
2013-05-29 17:36:00,65.0,61.0,29.92,ESE,105,0.0,2.0,87,0.00,,---,0.21,123.00,VWS V14.00,2013-05-29 21:36:00,
2013-05-29 17:41:00,65.0,61.0,29.92,ESE,105,0.0,4.0,87,0.00,,---,0.21,95.00,VWS V14.00,2013-05-29 21:41:00,
2013-05-29 17:46:00,65.2,61.2,29.92,ESE,105,2.0,3.0,87,0.00,,---,0.21,72.00,VWS V14.00,2013-05-29 21:46:00,
2013-05-29 17:51:00,65.3,61.7,29.92,ESE,105,0.0,3.0,88,0.00,,---,0.21,86.00,VWS V14.00,2013-05-29 21:51:00,
2013-05-29 17:56:00,65.4,61.8,29.92,ESE,105,0.0,3.0,88,0.00,,---,0.21,81.00,VWS V14.00,2013-05-29 21:56:00,
2013-05-29 18:00:00,58.9,49.9,30.08,SW,232,0.0,3.0,72,0.00,,---,0.00,5.00,VWS V14.00,2013-05-29 22:00:00,
2013-05-29 18:01:00,65.6,62.0,29.92,ESE,105,0.0,3.0,88,0.00,,---,0.21,63.00,VWS V14.00,2013-05-29 22:01:00,
2013-05-29 18:06:00,65.7,62.0,29.91,ESE,104,3.0,3.0,88,0.00,,---,0.21,53.00,VWS V14.00,2013-05-29 22:06:00,
2013-05-29 18:11:00,66.1,62.5,29.91,ESE,113,0.0,8.0,88,0.00,,---,0.21,84.00,VWS V14.00,2013-05-29 22:11:00,
2013-05-29 18:16:00,66.3,62.3,29.91,SSE,155,0.0,2.0,87,0.00,,---,0.21,54.00,VWS V14.00,2013-05-29 22:16:00,
2013-05-29 18:21:00,66.5,62.5,29.92,SSE,155,0.0,2.0,87,0.00,,---,0.21,53.00,VWS V14.00,2013-05-29 22:21:00,
2013-05-29 18:26:00,66.5,62.5,29.92,SSE,155,0.0,2.0,87,0.00,,---,0.21,60.00,VWS V14.00,2013-05-29 22:26:00,
2013-05-29 18:30:00,57.2,49.0,30.09,NE,46,0.0,3.0,74,0.00,,---,0.00,0.00,VWS V14.00,2013-05-29 22:30:00,
2013-05-29 18:31:00,66.4,62.4,29.92,South,184,0.0,2.0,87,0.00,,---,0.21,54.00,VWS V14.00,2013-05-29 22:31:00,
2013-05-29 18:36:00,66.4,62.4,29.92,South,184,0.0,2.0,87,0.00,,---,0.21,54.00,VWS V14.00,2013-05-29 22:36:00,
2013-05-29 18:41:00,66.3,62.3,29.92,South,184,0.0,2.0,87,0.00,,---,0.21,49.00,VWS V14.00,2013-05-29 22:41:00,
2013-05-29 18:46:00,66.2,62.2,29.92,South,184,0.0,0.0,87,0.00,,---,0.21,33.00,VWS V14.00,2013-05-29 22:46:00,
2013-05-29 18:51:00,66.2,62.5,29.92,South,184,0.0,0.0,88,0.00,,---,0.21,26.00,VWS V14.00,2013-05-29 22:51:00,
2013-05-29 18:56:00,66.1,62.5,29.92,South,180,1.0,4.0,88,0.00,,---,0.21,25.00,VWS V14.00,2013-05-29 22:56:00,
2013-05-29 19:00:00,55.5,49.1,30.10,NE,46,0.0,1.0,79,0.00,,---,0.00,0.00,VWS V14.00,2013-05-29 23:00:00,
2013-05-29 19:01:00,66.3,63.0,29.92,SSE,152,3.0,5.0,89,0.01,,---,0.22,21.00,VWS V14.00,2013-05-29 23:01:00,
2013-05-29 19:06:00,66.4,63.1,29.92,SSE,168,7.0,7.0,89,0.01,,---,0.22,32.00,VWS V14.00,2013-05-29 23:06:00,
2013-05-29 19:11:00,66.5,63.2,29.92,SSE,167,3.0,7.0,89,0.01,,---,0.22,62.00,VWS V14.00,2013-05-29 23:11:00,
2013-05-29 19:16:00,66.6,63.3,29.92,South,176,1.0,6.0,89,0.01,,---,0.22,81.00,VWS V14.00,2013-05-29 23:16:00,
2013-05-29 19:21:00,66.8,63.5,29.92,South,181,1.0,6.0,89,0.01,,---,0.22,77.00,VWS V14.00,2013-05-29 23:21:00,
2013-05-29 19:26:00,67.0,63.7,29.92,SSE,159,0.0,6.0,89,0.01,,---,0.22,84.00,VWS V14.00,2013-05-29 23:26:00,
2013-05-29 19:30:00,54.1,48.4,30.09,NE,46,0.0,2.0,81,0.00,,---,0.00,0.00,VWS V14.00,2013-05-29 23:30:00,
2013-05-29 19:31:00,67.1,63.8,29.92,South,180,0.0,11.0,89,0.01,,---,0.22,100.00,VWS V14.00,2013-05-29 23:31:00,
2013-05-29 19:36:00,67.3,63.6,29.92,SSE,159,4.0,11.0,88,0.01,,---,0.22,76.00,VWS V14.00,2013-05-29 23:36:00,
2013-05-29 19:41:00,67.4,63.7,29.92,SSE,149,3.0,11.0,88,0.01,,---,0.22,51.00,VWS V14.00,2013-05-29 23:41:00,
2013-05-29 19:46:00,67.5,63.8,29.92,South,173,0.0,5.0,88,0.01,,---,0.22,46.00,VWS V14.00,2013-05-29 23:46:00,
2013-05-29 19:51:00,67.5,63.8,29.91,South,180,4.0,8.0,88,0.01,,---,0.22,44.00,VWS V14.00,2013-05-29 23:51:00,
2013-05-29 19:56:00,67.6,63.9,29.92,South,169,2.0,8.0,88,0.01,,---,0.22,42.00,VWS V14.00,2013-05-29 23:56:00,
2013-05-29 20:00:00,52.9,47.6,30.09,NE,46,0.0,2.0,82,0.00,,---,0.00,0.00,VWS V14.00,2013-05-30 00:00:00,
2013-05-29 20:01:00,67.6,63.6,29.92,SSW,206,0.0,8.0,87,0.01,,---,0.22,30.00,VWS V14.00,2013-05-30 00:01:00,
2013-05-29 20:06:00,67.6,63.6,29.92,South,187,2.0,8.0,87,0.01,,---,0.22,26.00,VWS V14.00,2013-05-30 00:06:00,
2013-05-29 20:11:00,67.6,63.6,29.92,South,182,2.0,11.0,87,0.01,,---,0.22,21.00,VWS V14.00,2013-05-30 00:11:00,
2013-05-29 20:17:00,67.7,63.7,29.91,SSE,168,2.0,7.0,87,0.00,,---,0.22,23.00,VWS V14.00,2013-05-30 00:17:00,
2013-05-29 20:22:00,67.7,63.7,29.91,South,180,0.0,7.0,87,0.00,,---,0.22,25.00,VWS V14.00,2013-05-30 00:22:00,
2013-05-29 20:27:00,67.7,63.7,29.91,South,178,2.0,7.0,87,0.00,,---,0.22,21.00,VWS V14.00,2013-05-30 00:27:00,
2013-05-29 20:30:00,52.1,47.4,30.09,NE,46,0.0,3.0,84,0.00,,---,0.00,0.00,VWS V14.00,2013-05-30 00:30:00,
2013-05-29 20:32:00,67.6,63.6,29.91,South,175,0.0,7.0,87,0.00,,---,0.22,5.00,VWS V14.00,2013-05-30 00:32:00,
2013-05-29 20:37:00,67.6,63.6,29.91,SW,220,3.0,7.0,87,0.00,,---,0.22,0.00,VWS V14.00,2013-05-30 00:37:00,
2013-05-29 20:42:00,67.6,63.6,29.91,SSE,161,2.0,8.0,87,0.00,,---,0.22,0.00,VWS V14.00,2013-05-30 00:42:00,
2013-05-29 20:47:00,67.7,64.0,29.91,South,171,4.0,10.0,88,0.00,,---,0.22,0.00,VWS V14.00,2013-05-30 00:47:00,
2013-05-29 20:52:00,67.8,64.1,29.91,South,184,2.0,11.0,88,0.00,,---,0.22,0.00,VWS V14.00,2013-05-30 00:52:00,
2013-05-29 20:57:00,67.7,64.0,29.92,South,186,1.0,11.0,88,0.00,,---,0.22,0.00,VWS V14.00,2013-05-30 00:57:00,
2013-05-29 21:00:00,52.1,47.4,30.09,NE,46,0.0,2.0,84,0.00,,---,0.00,0.00,VWS V14.00,2013-05-30 01:00:00,
2013-05-29 21:02:00,67.8,64.1,29.91,SSW,208,2.0,11.0,88,0.00,,---,0.22,0.00,VWS V14.00,2013-05-30 01:02:00,
2013-05-29 21:07:00,67.8,64.1,29.92,SSE,165,1.0,11.0,88,0.00,,---,0.22,0.00,VWS V14.00,2013-05-30 01:07:00,
2013-05-29 21:12:00,67.8,64.1,29.92,SSW,211,0.0,11.0,88,0.00,,---,0.22,0.00,VWS V14.00,2013-05-30 01:12:00,
2013-05-29 21:17:00,67.7,64.3,29.92,SW,215,1.0,2.0,89,0.00,,---,0.22,0.00,VWS V14.00,2013-05-30 01:17:00,
2013-05-29 21:22:00,67.7,64.3,29.92,South,170,1.0,6.0,89,0.00,,---,0.22,0.00,VWS V14.00,2013-05-30 01:22:00,
2013-05-29 21:27:00,67.6,64.2,29.92,SE,135,5.0,12.0,89,0.00,,---,0.22,0.00,VWS V14.00,2013-05-30 01:27:00,
2013-05-29 21:30:00,52.2,47.5,30.08,NE,46,0.0,2.0,84,0.00,,---,0.00,0.00,VWS V14.00,2013-05-30 01:30:00,
2013-05-29 21:32:00,67.5,64.2,29.92,South,189,4.0,13.0,89,0.00,,---,0.22,0.00,VWS V14.00,2013-05-30 01:32:00,
2013-05-29 21:37:00,67.4,64.1,29.92,South,179,6.0,13.0,89,0.00,,---,0.22,0.00,VWS V14.00,2013-05-30 01:37:00,
2013-05-29 21:42:00,67.2,63.8,29.92,South,169,2.0,13.0,89,0.00,,---,0.22,0.00,VWS V14.00,2013-05-30 01:42:00,
2013-05-29 21:47:00,67.1,63.4,29.92,SSW,196,0.0,6.0,88,0.00,,---,0.22,0.00,VWS V14.00,2013-05-30 01:47:00,
2013-05-29 21:52:00,66.9,63.6,29.92,SW,215,3.0,6.0,89,0.00,,---,0.22,0.00,VWS V14.00,2013-05-30 01:52:00,
2013-05-29 21:57:00,66.8,63.5,29.92,SSE,161,2.0,6.0,89,0.00,,---,0.22,0.00,VWS V14.00,2013-05-30 01:57:00,
2013-05-29 22:00:00,52.2,48.2,30.08,NE,46,0.0,2.0,86,0.00,,---,0.00,0.00,VWS V14.00,2013-05-30 02:00:00,
2013-05-29 22:02:00,66.6,63.3,29.92,SSE,151,2.0,6.0,89,0.00,,---,0.22,0.00,VWS V14.00,2013-05-30 02:02:00,
2013-05-29 22:07:00,66.5,62.8,29.92,South,182,0.0,6.0,88,0.00,,---,0.22,0.00,VWS V14.00,2013-05-30 02:07:00,
2013-05-29 22:12:00,66.3,62.6,29.93,South,182,0.0,6.0,88,0.00,,---,0.22,0.00,VWS V14.00,2013-05-30 02:12:00,
2013-05-29 22:17:00,66.1,62.5,29.93,South,182,0.0,0.0,88,0.00,,---,0.22,0.00,VWS V14.00,2013-05-30 02:17:00,
2013-05-29 22:22:00,65.7,62.0,29.93,South,181,0.0,3.0,88,0.00,,---,0.22,0.00,VWS V14.00,2013-05-30 02:22:00,
2013-05-29 22:27:00,65.6,62.3,29.93,SW,235,0.0,3.0,89,0.00,,---,0.22,0.00,VWS V14.00,2013-05-30 02:27:00,
2013-05-29 22:30:00,53.1,47.1,30.07,SW,214,0.0,3.0,80,0.00,,---,0.00,0.00,VWS V14.00,2013-05-30 02:30:00,
2013-05-29 22:32:00,65.3,62.0,29.93,ESE,102,2.0,3.0,89,0.00,,---,0.22,0.00,VWS V14.00,2013-05-30 02:32:00,
2013-05-29 22:37:00,65.0,61.7,29.93,ESE,102,1.0,3.0,89,0.00,,---,0.22,0.00,VWS V14.00,2013-05-30 02:37:00,
2013-05-29 22:42:00,64.9,61.6,29.94,ESE,102,0.0,3.0,89,0.00,,---,0.22,0.00,VWS V14.00,2013-05-30 02:42:00,
2013-05-29 22:47:00,64.8,61.5,29.94,East,84,0.0,3.0,89,0.00,,---,0.22,0.00,VWS V14.00,2013-05-30 02:47:00,
2013-05-29 22:52:00,64.6,61.6,29.94,East,84,1.0,3.0,90,0.00,,---,0.22,0.00,VWS V14.00,2013-05-30 02:52:00,
2013-05-29 22:57:00,64.5,61.2,29.94,East,84,0.0,3.0,89,0.00,,---,0.22,0.00,VWS V14.00,2013-05-30 02:57:00,
2013-05-29 23:00:00,56.3,45.9,30.06,South,185,2.0,4.0,68,0.00,,---,0.00,0.00,VWS V14.00,2013-05-30 03:00:00,
2013-05-29 23:02:00,64.2,60.9,29.95,East,84,0.0,3.0,89,0.00,,---,0.22,0.00,VWS V14.00,2013-05-30 03:02:00,
2013-05-29 23:07:00,63.8,60.8,29.95,NE,41,0.0,4.0,90,0.00,,---,0.22,0.00,VWS V14.00,2013-05-30 03:07:00,
2013-05-29 23:12:00,63.7,60.7,29.95,NE,41,0.0,4.0,90,0.00,,---,0.22,0.00,VWS V14.00,2013-05-30 03:12:00,
2013-05-29 23:17:00,63.6,60.6,29.95,NE,41,0.0,0.0,90,0.00,,---,0.22,0.00,VWS V14.00,2013-05-30 03:17:00,
2013-05-29 23:22:00,63.5,60.5,29.95,NE,44,1.0,1.0,90,0.00,,---,0.22,0.00,VWS V14.00,2013-05-30 03:22:00,
2013-05-29 23:27:00,63.4,60.4,29.95,NE,44,0.0,2.0,90,0.00,,---,0.22,0.00,VWS V14.00,2013-05-30 03:27:00,
2013-05-29 23:30:00,56.9,46.1,30.05,South,172,0.0,4.0,67,0.00,,---,0.00,0.00,VWS V14.00,2013-05-30 03:30:00,
2013-05-29 23:32:00,63.5,60.8,29.95,SE,135,0.0,3.0,91,0.00,,---,0.22,0.00,VWS V14.00,2013-05-30 03:32:00,
2013-05-29 23:37:00,63.7,61.0,29.95,NE,35,1.0,3.0,91,0.00,,---,0.22,0.00,VWS V14.00,2013-05-30 03:37:00,
2013-05-29 23:42:00,63.6,60.9,29.95,WSW,241,0.0,5.0,91,0.00,,---,0.22,0.00,VWS V14.00,2013-05-30 03:42:00,
2013-05-29 23:47:00,63.8,61.1,29.95,SSE,159,0.0,0.0,91,0.00,,---,0.22,0.00,VWS V14.00,2013-05-30 03:47:00,
2013-05-29 23:52:00,63.8,61.1,29.95,SSE,155,3.0,4.0,91,0.00,,---,0.22,0.00,VWS V14.00,2013-05-30 03:52:00,
2013-05-29 23:57:00,63.8,61.1,29.96,North,355,0.0,4.0,91,0.00,,---,0.22,0.00,VWS V14.00,2013-05-30 03:57:00,